Location: Unspecified
(27.8252°N, 0.0000°E)
Time: 06:30:17
(UTC+00:00)

SO-50 - Visible Passes

Search period start: 04 April 2026 00:00
Search period end: 14 April 2026 00:00
Orbit: 568 x 673 km, 64.6° (Epoch: 29 March)

Date Brightness Start Highest point End Pass type
(mag) Time Alt. Az. Time Alt. Az. Time Alt. Az.
4 Apr ? 21:02:27 10° N 21:02:33 10° N 21:02:33 10° N visible
5 Apr ? 21:19:36 10° NNW 21:20:00 12° NNW 21:20:00 12° NNW visible
6 Apr ? 19:59:11 10° NNE 20:00:20 13° NE 20:00:20 13° NE visible
6 Apr ? 21:37:19 10° NW 21:37:30 11° NW 21:37:30 11° NW visible
7 Apr ? 20:15:25 10° N 20:17:53 23° NNE 20:17:53 23° NNE visible
8 Apr ? 20:32:35 10° NNW 20:35:31 37° N 20:35:31 37° N visible
9 Apr ? 19:12:04 10° NNE 19:14:40 14° NE 19:16:02 13° ENE visible
9 Apr ? 20:50:19 10° NW 20:53:14 33° WNW 20:53:14 33° WNW visible
10 Apr ? 19:28:22 10° N 19:32:33 31° ENE 19:33:50 26° E visible
10 Apr ? 21:08:51 10° WNW 21:11:01 18° W 21:11:01 18° W visible
11 Apr ? 19:45:32 10° NNW 19:50:15 72° ENE 19:51:42 43° SE visible
12 Apr ? 20:03:16 10° NW 20:07:47 46° WSW 20:09:41 29° SSW visible
13 Apr ? 18:41:16 10° N 18:45:29 31° ENE 18:49:35 10° ESE visible
13 Apr ? 20:21:51 10° WNW 20:25:09 19° WSW 20:27:45 13° SSW visible
